Вернуться в каталог

STARLINK-31661

АктивенСвязьVLEO
NORAD 59735·PAYLOAD·🇺🇸 United States

Запущен May 13, 2024 с Cape Canaveral Space Force Station

Loading…

Ближайшие Пролёты (ближайшие 24 часа)

TLE

СвежийSource: CelesTrak SupGP

Эпоха: Sep 14, 2026, 22:13 UTC

1 59735C 24090F   26257.92618056 -.00003954  00000+0 -14311-3 0  2575
2 59735  43.0028 187.7450 0001125 267.8929  63.2596 15.27607265    15

Отслеживайте STARLINK-31661 в реальном времени с AllMySat

Download on the App Store